Miscellaneous Local Product
Issued by NWS North Platte, NE

Home | Current Version | Previous Version | Text Only | Print | Product List | Glossary On
Versions: 1 2 3 4 5 6 7 8 9 10 11 12 13 14 15 16 17 18 19 20 21 22 23 24 25 26 27 28 29 30 31 32 33 34 35 36 37 38 39 40 41 42 43 44 45 46 47 48 49 50
334
AXUS43 KLBF 030310
MISLBF


WESTERN AND NORTH CENTRAL NEBRASKA HOURLY WEATHER ROUNDUP
NATIONAL WEATHER SERVICE NORTH PLATTE NE
1000 PM CDT MON MAY 02 2016

NOTE: "FAIR" INDICATES FEW OR NO CLOUDS BELOW 12,000 FEET WITH NO
SIGNIFICANT WEATHER AND/OR OBSTRUCTIONS TO VISIBILITY.

NOTE: STATIONS NOT REPORTING VARIABLES SUCH AS SKY/WEATHER OR
PRESSURE ARE PROVIDED BY RAWS AND APRS NETWORKS AND ARE NOT UNDER
NATIONAL WEATHER SERVICE QUALITY CONTROL.

...OBSERVATIONS IN AND NEAR THE EASTERN PANHANDLE OF NEBRASKA...

CITY           SKY/WX    TMP DP  RH WIND       PRES   REMARKS
PINE RIDGE     CLOUDY    47  42  83 CALM      30.03S
CHADRON        LGT RAIN  51  42  71 VRB3      30.03R
ALLIANCE       CLOUDY    46  38  73 CALM      30.03R
SIDNEY         CLOUDY    51  32  48 CALM      30.05R
CRESCENT LAKE    N/A     49  39  69 NE3G12      N/A
BIG SPRINGS      N/A     52  42  69 CALM        N/A
$$

...OBSERVATIONS IN NORTHERN NEBRASKA AND FAR SOUTHERN SOUTH DAKOTA...

CITY           SKY/WX    TMP DP  RH WIND       PRES   REMARKS
WINNER         CLOUDY    53  45  74 W6        30.03R
VALENTINE      LGT RAIN  47  43  86 NW6       30.05R
THEDFORD       CLOUDY    51  40  64 S9        30.02R
AINSWORTH      CLOUDY    50  43  75 E3        30.03R
O`NEILL        CLOUDY    51  46  83 E5        30.02S
ORD            PTCLDY    47  40  76 SW6       30.01S
BROKEN BOW     CLEAR     45  40  82 E3        30.02S
VALENTINE NWR    N/A     51  40  65 NW9         N/A
BUTTE            N/A     52  44  73 CALM        N/A
HALSEY           N/A     50  37  61 S3          N/A
CHAMBERS         N/A     53  39  59 E6          N/A
EWING            N/A     51  42  71 CALM        N/A
$$

...OBSERVATIONS IN SOUTHWEST NEBRASKA AND FAR NORTHEAST COLORADO...

CITY           SKY/WX    TMP DP  RH WIND       PRES   REMARKS
HOLYOKE        FAIR      54  41  62 S6        30.05S
IMPERIAL       PTCLDY    53  32  44 SW8       30.04S
OGALLALA       MOCLDY    47  38  71 SW3       30.02S
NORTH PLATTE   PTCLDY    42  37  82 E5        30.02F
MCCOOK         PTCLDY    50  37  61 NW5       30.03S
LEXINGTON      CLEAR     48  40  73 SE3       30.04R
PAXTON           N/A     55  40  56 NW3         N/A
STAPLETON        N/A     46  39  77 CALM        N/A
GOTHENBURG       N/A     52  36  55 CALM        N/A
CALLAWAY         N/A     48  41  77 CALM        N/A
$$

...OBSERVATIONS IN CENTRAL LINCOLN COUNTY AREA...

CITY           SKY/WX    TMP DP  RH WIND       PRES   REMARKS
N.P. AIRPORT   PTCLDY    42  37  82 E5        30.02F
N.P. DOWNTOWN    N/A     50  40  68 CALM        N/A
N.P. HILLCREST   N/A     46  38  75 E9          N/A
$$

...SOME OBSERVATIONS FROM AROUND THE REGION...

CITY           SKY/WX    TMP DP  RH WIND       PRES   REMARKS
DENVER         PTCLDY    52  22  30 NW3       30.13R
LARAMIE        CLEAR     35  25  66 NW12      30.18R WCI  27
CHEYENNE       CLEAR     46  26  45 NW9       30.14R
SCOTTSBLUFF    CLEAR     51  33  50 N10       30.05R
RAPID CITY     CLEAR     47  37  68 N9        30.02R
BISMARCK       CLEAR     51  43  74 E3        30.01R
PIERRE         PTCLDY    48  42  80 CALM      30.01R
SIOUX FALLS    CLEAR     49  39  68 CALM      30.02R
OMAHA          PTCLDY    50  42  74 SE3       30.04S
GRAND ISLAND   PTCLDY    52  41  66 S5        30.05R
KANSAS CITY    PTCLDY    49  44  83 SW6       30.07R
WICHITA        CLEAR     51  41  68 CALM      30.09R
OKLAHOMA CITY  PTCLDY    52  42  69 CALM      30.12R
DALLAS         CLEAR     56  46  69 NE5       30.11R
AMARILLO       CLEAR     51  38  60 SE6       30.15R
DODGE CITY     CLEAR     49  35  58 S5        30.09S
HAYS             N/A     54  36  50 SE9       30.06R VSB 3/4
GOODLAND       PTCLDY    50  37  61 CALM      30.06S
$$




USA.gov is the U.S. government's official web portal to all federal, state and local government web resources and services.